User: anonymous   Login
Location: ?????
(54.9266°N, 38.5527°E)
Time: 09:33:56
(UTC+00:00)
Language:

ATLAS 5 CENTAUR R/B - Orbit

View from above orbital plane
View from above orbital plane
View from above satellite
View from above satellite

Ground track
Ground track

The orbit data is extracted from the following two-line orbital elements,

1 31702U 07027B   24164.72912976  .00005836  00000-0  50640-3 0  9999
2 31702  63.3300 306.3521 0522105  32.6164 330.6040 14.29461302  4896
Epoch (UTC): 12 June 2024 17:29:56
Eccentricity: 0.0522105
inclination: 63.3300°
perigee height: 419 km
apogee height: 1168 km
right ascension of ascending node: 306.3521°
argument of perigee: 32.6164°
revolutions per day: 14.29461302
mean anomaly at epoch: 330.6040°
orbit number at epoch: 489

The dashed part of the orbit path shows where the satellite is in the earth's shadow,  

DLR